| time (UTC) | temp F | wind direction | speed MPH | gust MPH | rain 1hr in | rain 24hr in | rain mn in | humidity % | barometer mb |
| 20260507105435 | 40 | 0.0 | 0.0 | 0.00 | 0.36 | 0.00 | 91 | 1012.9 | |
| 20260507104434 | 40 | 0.0 | 0.0 | 0.00 | 0.38 | 0.00 | 95 | 1012.9 | |
| 20260507103435 | 38 | 0.0 | 0.0 | 0.00 | 0.39 | 0.00 | 97 | 1012.7 | |
| 20260507102434 | 35 | 0.0 | 0.0 | 0.00 | 0.40 | 0.00 | 97 | 1013.1 | |
| 20260507101435 | 34 | 0.0 | 0.0 | 0.00 | 0.40 | 0.00 | 97 | 1012.6 | |
| 20260507100436 | 34 | 0.0 | 0.0 | 0.00 | 0.44 | 0.00 | 96 | 1012.8 | |
| 20260507095455 | 34 | 0.0 | 0.0 | 0.00 | 0.44 | 0.00 | 95 | 1012.5 | |
| 20260507094434 | 35 | 0.0 | 0.0 | 0.00 | 0.44 | 0.00 | 94 | 1012.8 | |
| 20260507093435 | 35 | 0.0 | 0.0 | 0.00 | 0.46 | 0.00 | 93 | 1012.6 | |
| 20260507092434 | 36 | 0.0 | 0.0 | 0.00 | 0.46 | 0.00 | 91 | 1012.7 | |
| 20260507091435 | 37 | 0.0 | 0.0 | 0.00 | 0.48 | 0.00 | 89 | 1012.5 | |
| 20260507090434 | 38 | 0.0 | 0.0 | 0.00 | 0.49 | 0.00 | 87 | 1012.9 | |
| 20260507085435 | 39 | 0.0 | 0.0 | 0.00 | 0.51 | 0.00 | 84 | 1012.8 | |
| 20260507084434 | 39 | 0.0 | 0.0 | 0.00 | 0.52 | 0.00 | 83 | 1012.8 | |
| 20260507083435 | 40 | 0.0 | 0.0 | 0.00 | 0.52 | 0.00 | 82 | 1012.7 | |
| 20260507082434 | 39 | 0.0 | 0.0 | 0.00 | 0.53 | 0.00 | 83 | 1013.1 | |
| 20260507081455 | 39 | 0.0 | 0.0 | 0.00 | 0.54 | 0.00 | 84 | 1012.8 | |
| 20260507080434 | 39 | 0.0 | 0.0 | 0.00 | 0.56 | 0.00 | 84 | 1013.1 | |
| 20260507075435 | 40 | 0.0 | 0.0 | 0.00 | 0.58 | 0.00 | 83 | 1012.8 | |
| 20260507074434 | 41 | 0.0 | 0.0 | 0.00 | 0.58 | 0.00 | 82 | 1013.0 | |
| 20260507073455 | 41 | 0.0 | 0.0 | 0.00 | 0.58 | 0.00 | 80 | 1012.7 | |
| 20260507072454 | 41 | 0.0 | 0.0 | 0.00 | 0.58 | 0.00 | 81 | 1012.7 | |
| 20260507071435 | 41 | 0.0 | 0.0 | 0.00 | 0.58 | 0.00 | 80 | 1012.6 | |
| 20260507070434 | 42 | 0.0 | 0.0 | 0.00 | 0.58 | 0.00 | 80 | 1012.5 | |
| 20260507065435 | 42 | 0.0 | 0.0 | 0.00 | 0.58 | 0.00 | 80 | 1012.5 | |
| 20260507064434 | 42 | 0.0 | 0.0 | 0.00 | 0.58 | 0.00 | 78 | 1012.7 | |
| 20260507063455 | 42 | 0.0 | 0.0 | 0.00 | 0.58 | 0.00 | 79 | 1012.4 | |
| 20260507062434 | 42 | 0.0 | 0.0 | 0.00 | 0.58 | 0.00 | 80 | 1012.8 | |
| 20260507061435 | 42 | 0.0 | 0.0 | 0.00 | 0.58 | 0.00 | 83 | 1012.7 | |
| 20260507060434 | 42 | 0.0 | 0.0 | 0.00 | 0.60 | 0.00 | 86 | 1013.0 | |
| 20260507055435 | 43 | 0.0 | 0.0 | 0.00 | 0.60 | 0.00 | 90 | 1012.7 | |
| 20260507054434 | 43 | 0.0 | 0.0 | 0.00 | 0.60 | 0.00 | 92 | 1013.0 | |
| 20260507053435 | 43 | 0.0 | 0.0 | 0.00 | 0.60 | 0.00 | 93 | 1012.8 | |
| 20260507052434 | 43 | 0.0 | 0.0 | 0.00 | 0.60 | 0.00 | 93 | 1012.9 | |
| 20260507051435 | 43 | 0.0 | 0.0 | 0.00 | 0.60 | 0.00 | 94 | 1012.7 | |
| 20260507050454 | 43 | 0.0 | 0.0 | 0.00 | 0.60 | 0.00 | 94 | 1012.8 | |
| 20260507045455 | 43 | 0.0 | 0.0 | 0.00 | 0.60 | 0.00 | 95 | 1012.7 | |
| 20260507044433 | 44 | 0.0 | 0.0 | 0.00 | 0.60 | 0.00 | 96 | 1012.9 | |
| 20260507043435 | 44 | 0.0 | 0.0 | 0.00 | 0.60 | 0.00 | 96 | 1012.6 | |
| 20260507042434 | 44 | 0.0 | 0.0 | 0.00 | 0.60 | 0.00 | 97 | 1012.8 | |
| 20260507041435 | 44 | 0.0 | 0.0 | 0.00 | 0.61 | 0.00 | 98 | 1012.2 | |
| 20260507040434 | 44 | 0.0 | 0.0 | 0.00 | 0.61 | 0.00 | 98 | 1012.7 | |
| 20260507035433 | 44 | 0.0 | 0.0 | 0.00 | 0.62 | 0.62 | 98 | 1012.1 | |
| 20260507034434 | 44 | 0.0 | 0.0 | 0.00 | 0.66 | 0.62 | 98 | 1012.5 | |
| 20260507033433 | 44 | 0.0 | 0.0 | 0.00 | 0.70 | 0.62 | 99 | 1012.0 | |
| 20260507032433 | 44 | 0.0 | 0.0 | 0.00 | 0.71 | 0.62 | 99 | 1012.2 | |
| 20260507031433 | 44 | 0.0 | 0.0 | 0.00 | 0.73 | 0.62 | 99 | 1012.1 | |
| 20260507030433 | 45 | 0.0 | 0.0 | 0.00 | 0.75 | 0.62 | 99 | 1012.3 | |
| 20260507025433 | 45 | 0.0 | 0.0 | 0.00 | 0.77 | 0.62 | 98 | 1012.1 | |
| 20260507024433 | 45 | 0.0 | 0.0 | 0.00 | 0.78 | 0.62 | 98 | 1012.3 | |
| 20260507023433 | 45 | 0.0 | 0.0 | 0.00 | 0.79 | 0.62 | 98 | 1012.0 | |
| 20260507022435 | 45 | 0.0 | 0.0 | 0.00 | 0.80 | 0.62 | 98 | 1012.3 | |
| 20260507021453 | 45 | 0.0 | 0.0 | 0.00 | 0.82 | 0.62 | 98 | 1012.2 | |
| 20260507020435 | 45 | 0.0 | 0.0 | 0.00 | 0.84 | 0.62 | 98 | 1012.6 | |
| 20260507015433 | 45 | 0.0 | 0.0 | 0.00 | 0.86 | 0.62 | 98 | 1012.2 | |
| 20260507014453 | 45 | 0.0 | 0.0 | 0.00 | 0.88 | 0.62 | 97 | 1012.4 | |
| 20260507013433 | 45 | 0.0 | 0.0 | 0.00 | 0.88 | 0.62 | 97 | 1012.3 | |
| 20260507012433 | 45 | 0.0 | 0.0 | 0.00 | 0.92 | 0.62 | 97 | 1012.0 | |
| 20260507011433 | 45 | 0.0 | 0.0 | 0.00 | 0.94 | 0.62 | 96 | 1012.6 | |
| 20260507010433 | 45 | 0.0 | 0.0 | 0.00 | 0.95 | 0.62 | 96 | 1011.9 | |
| 20260507005433 | 45 | 0.0 | 0.0 | 0.00 | 0.95 | 0.62 | 96 | 1011.9 | |
| 20260507004433 | 45 | 0.0 | 0.0 | 0.00 | 0.96 | 0.62 | 96 | 1012.3 | |
| 20260507003433 | 45 | 0.0 | 0.0 | 0.00 | 1.00 | 0.62 | 95 | 1011.7 | |
| 20260507002453 | 45 | 0.0 | 0.0 | 0.00 | 1.05 | 0.62 | 95 | 1011.8 | |
| 20260507001433 | 46 | 0.0 | 0.0 | 0.00 | 1.05 | 0.62 | 95 | 1011.5 | |
| 20260507000435 | 46 | 0.0 | 0.0 | 0.00 | 1.05 | 0.62 | 95 | 1011.5 | |
| 20260506235433 | 46 | 0.0 | 0.0 | 0.00 | 1.05 | 0.62 | 95 | 1011.3 | |
| 20260506234453 | 46 | 0.0 | 0.0 | 0.00 | 1.05 | 0.62 | 94 | 1011.6 | |
| 20260506233433 | 46 | 0.0 | 0.0 | 0.00 | 1.05 | 0.62 | 94 | 1010.9 | |
| 20260506232433 | 46 | 0.0 | 0.0 | 0.00 | 1.05 | 0.62 | 94 | 1011.1 | |
| 20260506231433 | 46 | 0.0 | 0.0 | 0.00 | 1.05 | 0.62 | 94 | 1010.8 | |
| 20260506230434 | 46 | 0.0 | 0.0 | 0.00 | 1.05 | 0.62 | 94 | 1010.8 | |
| 20260506225433 | 46 | 0.0 | 0.0 | 0.00 | 1.05 | 0.62 | 94 | 1010.1 | |
| 20260506224433 | 46 | 0.0 | 0.0 | 0.00 | 1.05 | 0.62 | 93 | 1011.1 | |
| 20260506223433 | 46 | 0.0 | 0.0 | 0.00 | 1.05 | 0.62 | 93 | 1011.0 | |
| 20260506222433 | 46 | 0.0 | 0.0 | 0.00 | 1.05 | 0.62 | 93 | 1011.1 | |
| 20260506221454 | 47 | 0.0 | 0.0 | 0.00 | 1.05 | 0.62 | 93 | 1010.9 | |
| 20260506220435 | 47 | 0.0 | 0.0 | 0.00 | 1.05 | 0.62 | 93 | 1011.1 | |
| 20260506215435 | 47 | 0.0 | 0.0 | 0.00 | 1.05 | 0.62 | 94 | 1010.7 | |
| 20260506214434 | 47 | 0.0 | 0.0 | 0.00 | 1.05 | 0.62 | 95 | 1010.9 | |
| 20260506213433 | 47 | 0.0 | 0.0 | 0.00 | 1.05 | 0.62 | 96 | 1010.5 | |
| 20260506212433 | 46 | 0.0 | 0.0 | 0.00 | 1.09 | 0.62 | 96 | 1010.6 | |
| 20260506211433 | 46 | 0.0 | 0.0 | 0.00 | 1.10 | 0.62 | 97 | 1010.5 | |
| 20260506210433 | 46 | 0.0 | 0.0 | 0.00 | 1.10 | 0.62 | 98 | 1010.6 | |
| 20260506205434 | 46 | 0.0 | 0.0 | 0.00 | 1.10 | 0.62 | 99 | 1010.2 | |
| 20260506204433 | 46 | 0.0 | 0.0 | 0.00 | 1.10 | 0.62 | 99 | 1010.1 | |
| 20260506203454 | 46 | 338 | 0.0 | 5.0 | 0.00 | 1.10 | 0.62 | 99 | 1010.0 |
| 20260506202433 | 45 | 0.0 | 0.0 | 0.00 | 1.10 | 0.62 | 99 | 1009.8 | |
| 20260506201433 | 46 | 0.0 | 0.0 | 0.00 | 1.10 | 0.62 | 99 | 1009.5 | |
| 20260506200433 | 46 | 0.0 | 0.0 | 0.00 | 1.10 | 0.62 | 99 | 1009.8 | |
| 20260506195433 | 46 | 0.0 | 0.0 | 0.00 | 1.10 | 0.62 | 99 | 1009.9 | |
| 20260506194433 | 46 | 0.0 | 0.0 | 0.00 | 1.10 | 0.62 | 99 | 1010.0 | |
| 20260506193434 | 46 | 0.0 | 0.0 | 0.00 | 1.10 | 0.62 | 99 | 1009.8 | |
| 20260506192433 | 46 | 0.0 | 0.0 | 0.00 | 1.10 | 0.62 | 99 | 1009.7 | |
| 20260506191454 | 46 | 0.0 | 0.0 | 0.00 | 1.10 | 0.62 | 99 | 1009.6 | |
| 20260506190433 | 46 | 0.0 | 0.0 | 0.00 | 1.10 | 0.62 | 99 | 1009.6 | |
| 20260506185434 | 45 | 0.0 | 0.0 | 0.00 | 1.10 | 0.62 | 99 | 1009.4 | |
| 20260506184433 | 45 | 0.0 | 0.0 | 0.00 | 1.10 | 0.62 | 99 | 1009.6 | |
| 20260506183453 | 46 | 0.0 | 0.0 | 0.00 | 1.10 | 0.62 | 99 | 1009.5 | |
| 20260506182433 | 46 | 0.0 | 0.0 | 0.00 | 1.10 | 0.62 | 99 | 1009.2 | |
| 20260506181514 | 46 | 0.0 | 0.0 | 0.00 | 1.10 | 0.62 | 99 | 1009.0 | |
| 20260506180433 | 46 | 0.0 | 0.0 | 0.00 | 1.11 | 0.62 | 99 | 1009.0 | |
| 20260506175433 | 46 | 0.0 | 0.0 | 0.00 | 1.14 | 0.62 | 99 | 1008.8 | |
| 20260506174433 | 46 | 0.0 | 0.0 | 0.00 | 1.14 | 0.62 | 99 | 1009.0 | |
| 20260506173434 | 46 | 0.0 | 0.0 | 0.00 | 1.14 | 0.62 | 99 | 1008.7 | |
| 20260506172433 | 46 | 0.0 | 0.0 | 0.00 | 1.14 | 0.62 | 99 | 1008.8 | |
| 20260506171433 | 47 | 0.0 | 0.0 | 0.00 | 1.14 | 0.62 | 99 | 1008.5 | |
| 20260506170433 | 46 | 0.0 | 0.0 | 0.00 | 1.14 | 0.62 | 99 | 1008.6 | |
| 20260506165434 | 47 | 0.0 | 0.0 | 0.00 | 1.14 | 0.62 | 99 | 1008.3 | |
| 20260506164433 | 46 | 0.0 | 0.0 | 0.01 | 1.14 | 0.62 | 99 | 1008.8 | |
| 20260506163433 | 46 | 0.0 | 0.0 | 0.02 | 1.14 | 0.62 | 99 | 1008.5 | |
| 20260506162433 | 47 | 0.0 | 0.0 | 0.02 | 1.14 | 0.62 | 99 | 1008.7 | |
| 20260506161433 | 45 | 0.0 | 0.0 | 0.01 | 1.13 | 0.61 | 99 | 1008.8 | |
| 20260506160433 | 45 | 0.0 | 0.0 | 0.01 | 1.13 | 0.61 | 99 | 1009.0 | |
| 20260506155434 | 45 | 0.0 | 0.0 | 0.02 | 1.13 | 0.61 | 99 | 1008.9 | |
| 20260506154453 | 45 | 0.0 | 0.0 | 0.01 | 1.12 | 0.60 | 99 | 1009.1 | |
| 20260506153434 | 45 | 0.0 | 0.0 | 0.02 | 1.11 | 0.59 | 99 | 1008.9 | |
| 20260506152433 | 45 | 0.0 | 0.0 | 0.02 | 1.11 | 0.59 | 99 | 1009.3 | |
| 20260506151434 | 45 | 0.0 | 0.0 | 0.02 | 1.11 | 0.59 | 99 | 1008.6 | |
| 20260506150433 | 45 | 0.0 | 0.0 | 0.03 | 1.11 | 0.59 | 99 | 1008.9 | |
| 20260506145434 | 45 | 0.0 | 0.0 | 0.03 | 1.10 | 0.58 | 99 | 1008.5 | |
| 20260506144433 | 45 | 0.0 | 0.0 | 0.05 | 1.10 | 0.58 | 99 | 1008.5 | |
| 20260506143434 | 45 | 0.0 | 0.0 | 0.04 | 1.09 | 0.57 | 99 | 1008.3 | |
| 20260506142433 | 45 | 0.0 | 0.0 | 0.05 | 1.08 | 0.56 | 99 | 1008.8 | |
| 20260506141434 | 45 | 0.0 | 0.0 | 0.07 | 1.08 | 0.56 | 99 | 1008.3 | |
| 20260506140433 | 45 | 0.0 | 0.0 | 0.08 | 1.07 | 0.55 | 99 | 1008.7 | |
| 20260506135434 | 44 | 0.0 | 0.0 | 0.10 | 1.06 | 0.54 | 99 | 1008.7 | |
| 20260506134433 | 44 | 0.0 | 0.0 | 0.12 | 1.05 | 0.53 | 99 | 1009.0 | |
| 20260506133434 | 45 | 0.0 | 0.0 | 0.14 | 1.04 | 0.52 | 99 | 1008.9 | |
| 20260506132433 | 45 | 0.0 | 0.0 | 0.15 | 1.02 | 0.50 | 99 | 1009.0 | |
| 20260506131454 | 45 | 0.0 | 0.0 | 0.15 | 1.00 | 0.48 | 99 | 1009.0 | |
| 20260506130433 | 45 | 0.0 | 0.0 | 0.14 | 0.98 | 0.46 | 99 | 1009.0 | |
| 20260506125454 | 44 | 0.0 | 0.0 | 0.12 | 0.96 | 0.44 | 99 | 1009.0 | |
| 20260506124433 | 44 | 0.0 | 0.0 | 0.09 | 0.93 | 0.41 | 99 | 1009.0 | |
| 20260506123434 | 44 | 0.0 | 0.0 | 0.07 | 0.90 | 0.38 | 99 | 1008.8 | |
| 20260506122453 | 45 | 0.0 | 0.0 | 0.05 | 0.87 | 0.35 | 99 | 1008.8 | |
| 20260506121434 | 44 | 0.0 | 0.0 | 0.04 | 0.85 | 0.33 | 99 | 1008.4 | |
| 20260506120433 | 45 | 0.0 | 0.0 | 0.05 | 0.84 | 0.32 | 99 | 1009.0 | |
| 20260506115434 | 44 | 0.0 | 0.0 | 0.05 | 0.83 | 0.31 | 99 | 1008.9 | |
| 20260506114453 | 45 | 0.0 | 0.0 | 0.07 | 0.83 | 0.31 | 99 | 1009.5 | |
| 20260506113434 | 45 | 0.0 | 0.0 | 0.07 | 0.82 | 0.30 | 99 | 1008.8 | |
| 20260506112433 | 45 | 0.0 | 0.0 | 0.08 | 0.81 | 0.29 | 99 | 1009.5 | |
| 20260506111435 | 45 | 0.0 | 0.0 | 0.07 | 0.80 | 0.28 | 99 | 1009.5 | |
| 20260506110433 | 45 | 0.0 | 0.0 | 0.08 | 0.78 | 0.26 | 99 | 1009.6 |